Weather History for KOPM - January, 2013

Change the Weather History Date:

Sunday, January 6, 2013

  Actual Average Record
Temperature  
Mean Temperature 58 °F -  
Max Temperature 60 °F - - ()
Min Temperature 55 °F - - ()
Degree Days  
Heating Degree Days 8    
Growing Degree Days 8 (Base 50)    
Moisture  
Dew Point 47 °F    
Average Humidity 69    
Maximum Humidity 88    
Minimum Humidity 51    
Precipitation  
Precipitation 0.00 in - - ()
Sea Level Pressure  
Sea Level Pressure 30.26 in    
Wind  
Wind Speed 14 mph (NNW)    
Max Wind Speed 23 mph    
Max Gust Speed 25 mph    
Visibility 10 miles    
Events      
Averages and records for this station are not official NWS values.
T = Trace of Precipitation, MM = Missing Value Source: NWS Daily Summary

Daily Weather History Graph

Daily Weather History Graph

Search for Another Location

Airport or City:

Trip Planner

Search our weather history database for the weather conditions in past years. The results will help you decide how hot, cold, wet, or windy it might be!

Date:

Astronomy

Jan. 06, 2013 Rise Set
Actual Time 7:17 AM CST 5:49 PM CST
Civil Twilight 6:52 AM CST 6:15 PM CST
Nautical Twilight 6:23 AM CST 6:43 PM CST
Astronomical Twilight 5:55 AM CST 7:12 PM CST
Moon 1:45 AM CST (1/6) 1:08 PM CST (1/6)
Length of Visible Light 11h 22m
Length of Day
10h 32m
Waning Crescent, 33% of the Moon is Illuminated
Jan 6
Waning Crescent
Jan 11
New
Jan 18
First Quarter
Jan 26
Full
Feb 3
Last Quarter

Hourly Weather History & Observations

Time (CST) Temp. Dew Point Humidity Pressure Visibility Wind Dir Wind Speed Gust Speed Precip Events Conditions
12:15 AM 57.2 °F 53.6 °F 88% 30.23 in 10.0 mi NNW 10.4 mph - N/A   Mostly Cloudy
12:35 AM 57.2 °F 53.6 °F 88% 30.23 in 10.0 mi NNW 12.7 mph - N/A   Mostly Cloudy
12:55 AM 57.2 °F 53.6 °F 88% 30.23 in 10.0 mi NNW 12.7 mph - N/A   Mostly Cloudy
1:15 AM 57.2 °F 53.6 °F 88% 30.24 in 10.0 mi NNW 13.8 mph 20.7 mph N/A   Mostly Cloudy
1:35 AM 57.2 °F 51.8 °F 82% 30.24 in 10.0 mi NNW 13.8 mph - N/A   Mostly Cloudy
1:55 AM 57.2 °F 51.8 °F 82% 30.24 in - NNW 13.8 mph 20.7 mph N/A   Mostly Cloudy
2:15 AM 55.4 °F 51.8 °F 88% 30.24 in 10.0 mi NNW 11.5 mph 18.4 mph N/A   Mostly Cloudy
2:35 AM 55.4 °F 51.8 °F 88% 30.23 in 10.0 mi NNW 12.7 mph - N/A   Mostly Cloudy
2:55 AM 55.4 °F 51.8 °F 88% 30.23 in 10.0 mi NNW 11.5 mph 17.3 mph N/A   Mostly Cloudy
3:15 AM 55.4 °F 51.8 °F 88% 30.23 in 10.0 mi NNW 13.8 mph - N/A   Overcast
3:35 AM 55.4 °F 51.8 °F 88% 30.23 in 10.0 mi NNW 13.8 mph - N/A   Overcast
4:15 AM 55.4 °F 51.8 °F 88% 30.23 in 10.0 mi NNW 17.3 mph - N/A   Overcast
4:35 AM 55.4 °F 50.0 °F 82% 30.22 in 10.0 mi NNW 17.3 mph 25.3 mph N/A   Overcast
4:55 AM 55.4 °F 50.0 °F 82% 30.22 in 10.0 mi NNW 19.6 mph - N/A   Overcast
5:15 AM 57.2 °F 51.8 °F 82% 30.22 in 10.0 mi NW 20.7 mph - N/A   Overcast
5:35 AM 55.4 °F 51.8 °F 88% 30.23 in 10.0 mi NW 20.7 mph - N/A   Mostly Cloudy
5:55 AM 55.4 °F 50.0 °F 82% 30.24 in 10.0 mi NW 23.0 mph - N/A   Overcast
6:15 AM 55.4 °F 50.0 °F 82% 30.24 in 10.0 mi NNW 21.9 mph - N/A   Overcast
6:35 AM 55.4 °F 50.0 °F 82% 30.24 in 10.0 mi NNW 17.3 mph 25.3 mph N/A   Overcast
6:55 AM 55.4 °F 48.2 °F 77% 30.25 in 10.0 mi NNW 19.6 mph - N/A   Overcast
7:15 AM 55.4 °F 48.2 °F 77% 30.26 in 10.0 mi NNW 17.3 mph 24.2 mph N/A   Overcast
7:35 AM 55.4 °F 46.4 °F 72% 30.28 in 10.0 mi NNW 19.6 mph - N/A   Overcast
7:55 AM 55.4 °F 46.4 °F 72% 30.29 in 10.0 mi NNW 18.4 mph - N/A   Overcast
8:15 AM 55.4 °F 46.4 °F 72% 30.31 in 10.0 mi NNW 16.1 mph - N/A   Overcast
8:35 AM 55.4 °F 46.4 °F 72% 30.31 in 10.0 mi NNW 17.3 mph - N/A   Overcast
8:55 AM 57.2 °F 46.4 °F 67% 30.31 in 10.0 mi NNW 13.8 mph 20.7 mph N/A   Scattered Clouds
9:15 AM 57.2 °F 46.4 °F 67% 30.30 in 10.0 mi NNW 15.0 mph 21.9 mph N/A   Clear
9:35 AM 57.2 °F 46.4 °F 67% 30.31 in 10.0 mi NNW 16.1 mph - N/A   Clear
10:15 AM 57.2 °F 46.4 °F 67% 30.30 in 10.0 mi NNW 16.1 mph 23.0 mph N/A   Clear
10:35 AM 57.2 °F 46.4 °F 67% 30.30 in 10.0 mi NNW 16.1 mph - N/A   Clear
10:55 AM 57.2 °F 46.4 °F 67% 30.30 in 10.0 mi NNW 13.8 mph - N/A   Clear
11:15 AM 57.2 °F 46.4 °F 67% 30.30 in 10.0 mi NNW 13.8 mph 23.0 mph N/A   Clear
11:35 AM 57.2 °F 46.4 °F 67% 30.29 in 10.0 mi NNW 13.8 mph 20.7 mph N/A   Clear
11:55 AM 57.2 °F 46.4 °F 67% 30.29 in 10.0 mi NNW 12.7 mph 20.7 mph N/A   Clear
12:15 PM 59.0 °F 46.4 °F 63% 30.28 in 10.0 mi NNW 12.7 mph 19.6 mph N/A   Clear
12:35 PM 59.0 °F 46.4 °F 63% 30.28 in 10.0 mi NNW 15.0 mph 21.9 mph N/A   Clear
12:55 PM 59.0 °F 48.2 °F 67% 30.27 in 10.0 mi NNW 12.7 mph 19.6 mph N/A   Partly Cloudy
1:15 PM 57.2 °F 46.4 °F 67% 30.25 in 10.0 mi North - - N/A   Partly Cloudy
1:35 PM 57.2 °F 48.2 °F 72% 30.25 in 10.0 mi NNW 11.5 mph 18.4 mph N/A   Partly Cloudy
1:55 PM 57.2 °F 48.2 °F 72% 30.26 in 10.0 mi NNW 11.5 mph 19.6 mph N/A   Partly Cloudy
2:15 PM 59.0 °F 48.2 °F 67% 30.26 in 10.0 mi NNW 11.5 mph - N/A   Partly Cloudy
2:35 PM 59.0 °F 46.4 °F 63% 30.26 in 10.0 mi North 10.4 mph - N/A   Clear
2:55 PM 59.0 °F 46.4 °F 63% 30.25 in - North 10.4 mph 16.1 mph N/A   Clear
3:15 PM 59.0 °F 44.6 °F 59% 30.25 in 10.0 mi North 11.5 mph - N/A   Clear
3:35 PM 59.0 °F 46.4 °F 63% 30.24 in 10.0 mi North 9.2 mph 19.6 mph N/A   Clear
3:55 PM 59.0 °F 46.4 °F 63% 30.24 in 10.0 mi North 11.5 mph 19.6 mph N/A   Clear
4:15 PM 59.0 °F 44.6 °F 59% 30.24 in 10.0 mi North 12.7 mph 21.9 mph N/A   Clear
4:35 PM 59.0 °F 44.6 °F 59% 30.24 in 10.0 mi North 10.4 mph 19.6 mph N/A   Clear
4:55 PM 59.0 °F 44.6 °F 59% 30.23 in 10.0 mi North 11.5 mph 20.7 mph N/A   Clear
5:15 PM 59.0 °F 44.6 °F 59% 30.24 in 10.0 mi North 15.0 mph - N/A   Clear
6:15 PM 59.0 °F 42.8 °F 55% 30.25 in 10.0 mi North 10.4 mph 17.3 mph N/A   Partly Cloudy
6:35 PM 59.0 °F 44.6 °F 59% 30.25 in 10.0 mi North 10.4 mph - N/A   Clear
6:55 PM 59.0 °F 44.6 °F 59% 30.27 in 10.0 mi North 10.4 mph 18.4 mph N/A   Clear
7:15 PM 59.0 °F 41.0 °F 51% 30.27 in 10.0 mi North 12.7 mph 19.6 mph N/A   Clear
7:35 PM 59.0 °F 41.0 °F 51% 30.28 in 10.0 mi North 10.4 mph 18.4 mph N/A   Clear
7:55 PM 59.0 °F 44.6 °F 59% 30.27 in 10.0 mi North 11.5 mph - N/A   Clear
8:15 PM 60.8 °F 42.8 °F 52% 30.28 in 10.0 mi North 12.7 mph 19.6 mph N/A   Partly Cloudy
8:35 PM 60.8 °F 42.8 °F 52% 30.29 in 10.0 mi North 10.4 mph - N/A   Mostly Cloudy
8:55 PM 60.8 °F 42.8 °F 52% 30.29 in 10.0 mi North 9.2 mph 15.0 mph N/A   Partly Cloudy
9:15 PM 60.8 °F 42.8 °F 52% 30.29 in 10.0 mi North 10.4 mph 16.1 mph N/A   Clear
9:35 PM 60.8 °F 44.6 °F 55% 30.29 in 10.0 mi North 9.2 mph 16.1 mph N/A   Clear
9:55 PM 60.8 °F 46.4 °F 59% 30.28 in 10.0 mi North 9.2 mph - N/A   Clear
10:15 PM 60.8 °F 46.4 °F 59% 30.28 in 10.0 mi North 10.4 mph - N/A   Clear
10:35 PM 60.8 °F 46.4 °F 59% 30.28 in 10.0 mi North 10.4 mph - N/A   Clear
10:55 PM 60.8 °F 44.6 °F 55% 30.28 in 10.0 mi North 8.1 mph 16.1 mph N/A   Clear
11:15 PM 60.8 °F 44.6 °F 55% 30.28 in 10.0 mi North 8.1 mph 13.8 mph N/A   Clear
11:55 PM 60.8 °F 46.4 °F 59% 30.28 in 10.0 mi NNE 6.9 mph 13.8 mph N/A   Partly Cloudy